Record,Date/Time,10,Tamb(K),Rh(%),Pres(mb),Rain,Vint(cm),Lqint(mm), 0.00, 0.10, 0.20, 0.30, 0.40, 0.50, 0.60, 0.70, 0.80, 0.90, 1.00, 1.25, 1.50, 1.75, 2.00, 2.25, 2.50, 2.75, 3.00, 3.25, 3.50, 3.75, 4.00, 4.25, 4.50, 4.75, 5.00, 5.25, 5.50, 5.75, 6.00, 6.25, 6.50, 6.75, 7.00, 7.25, 7.50, 7.75, 8.00, 8.25, 8.50, 8.75, 9.00, 9.25, 9.50, 9.75,10.00
     1,10/07/05 00:01:13,13,291.2, 79.3,1014.1,N, 3.90, 0.00,12.27,10.68,10.46,10.33,10.17, 9.96, 9.79, 9.40, 9.14, 8.98, 8.62, 7.67, 7.18, 6.96, 7.15, 7.66, 8.30, 8.43, 8.21, 8.16, 7.58, 6.83, 6.28, 5.30, 4.51, 4.05, 3.56, 3.17, 2.98, 2.78, 2.24, 1.95, 1.61, 1.32, 1.10, 0.88, 0.82, 0.64, 0.46, 0.30, 0.22, 0.17, 0.12, 0.09, 0.09, 0.07, 0.07
     2,10/07/05 00:02:14,13,291.3, 79.4,1014.1,N, 3.92, 0.00,12.34,11.03,10.82,10.70,10.55,10.37,10.20, 9.81, 9.58, 9.43, 9.08, 8.11, 7.56, 7.23, 7.13, 7.22, 7.50, 7.32, 7.08, 7.06, 6.57, 6.05, 5.57, 4.80, 4.12, 3.73, 3.28, 2.93, 2.70, 2.50, 2.06, 1.76, 1.48, 1.21, 1.01, 0.82, 0.76, 0.60, 0.44, 0.29, 0.21, 0.16, 0.12, 0.09, 0.09, 0.07, 0.07
     3,10/07/05 00:03:14,13,291.3, 79.4,1014.0,N, 3.95, 0.00,12.34,11.50,11.34,11.26,11.15,11.00,10.84,10.42,10.21,10.04, 9.67, 8.47, 7.81, 7.37, 7.27, 7.23, 7.52, 7.34, 7.09, 7.04, 6.45, 5.91, 5.34, 4.53, 3.82, 3.47, 3.03, 2.70, 2.49, 2.30, 1.90, 1.63, 1.37, 1.13, 0.95, 0.77, 0.73, 0.57, 0.44, 0.29, 0.21, 0.16, 0.12, 0.09, 0.09, 0.07, 0.06
     4,10/07/05 00:04:14,13,291.3, 79.2,1013.8,N, 3.92, 0.00,12.26,11.16,10.98,10.88,10.75,10.59,10.42, 9.99, 9.77, 9.59, 9.23, 8.11, 7.51, 7.07, 7.00, 7.14, 7.50, 7.42, 7.21, 7.25, 6.74, 6.20, 5.69, 4.89, 4.21, 3.83, 3.37, 3.02, 2.79, 2.58, 2.13, 1.83, 1.52, 1.24, 1.03, 0.84, 0.78, 0.60, 0.46, 0.30, 0.22, 0.17, 0.12, 0.09, 0.09, 0.07, 0.07
     5,10/07/05 00:05:14,13,291.2, 78.2,1013.8,N, 3.89, 0.00,12.07,10.59,10.38,10.25,10.10, 9.90, 9.73, 9.33, 9.09, 8.95, 8.62, 7.70, 7.19, 6.85, 6.75, 7.00, 7.35, 7.28, 7.12, 7.26, 6.90, 6.42, 6.03, 5.27, 4.66, 4.24, 3.76, 3.40, 3.16, 2.92, 2.40, 2.05, 1.70, 1.38, 1.14, 0.92, 0.84, 0.65, 0.47, 0.31, 0.22, 0.17, 0.12, 0.09, 0.09, 0.08, 0.07
     6,10/07/05 00:06:14,13,291.2, 79.2,1014.0,N, 3.84, 0.00,12.22,10.28,10.03, 9.86, 9.66, 9.44, 9.27, 8.87, 8.60, 8.43, 8.13, 7.33, 6.91, 6.56, 6.47, 6.88, 7.24, 7.24, 7.11, 7.30, 7.06, 6.62, 6.37, 5.67, 5.16, 4.71, 4.22, 3.81, 3.56, 3.28, 2.69, 2.29, 1.88, 1.51, 1.24, 0.99, 0.88, 0.67, 0.48, 0.31, 0.22, 0.16, 0.12, 0.09, 0.09, 0.07, 0.07
     7,10/07/05 00:07:14,13,291.5, 80.1,1014.1,N, 3.90, 0.00,12.55,10.70,10.46,10.30,10.12, 9.90, 9.73, 9.32, 9.03, 8.84, 8.47, 7.56, 7.12, 6.88, 7.17, 7.81, 8.50, 8.74, 8.48, 8.39, 7.79, 6.98, 6.48, 5.51, 4.74, 4.26, 3.76, 3.34, 3.14, 2.92, 2.35, 2.05, 1.67, 1.36, 1.13, 0.90, 0.83, 0.65, 0.46, 0.30, 0.22, 0.16, 0.12, 0.09, 0.09, 0.07, 0.07
     8,10/07/05 00:08:14,13,291.2, 80.1,1014.2,N, 3.91, 0.00,12.36,11.31,11.11,11.00,10.87,10.70,10.53,10.11, 9.89, 9.73, 9.39, 8.28, 7.61, 7.11, 6.87, 6.78, 6.95, 6.73, 6.55, 6.61, 6.21, 5.81, 5.37, 4.69, 4.08, 3.73, 3.29, 2.95, 2.71, 2.49, 2.08, 1.77, 1.48, 1.21, 1.01, 0.82, 0.76, 0.59, 0.45, 0.29, 0.21, 0.16, 0.12, 0.09, 0.09, 0.07, 0.06
     9,10/07/05 00:09:14,13,291.3, 79.3,1014.6,N, 3.93, 0.00,12.32,11.01,10.81,10.70,10.56,10.38,10.22, 9.79, 9.55, 9.38, 9.02, 7.95, 7.39, 7.03, 7.08, 7.36, 7.85, 7.87, 7.65, 7.66, 7.12, 6.49, 5.97, 5.10, 4.38, 3.97, 3.49, 3.12, 2.91, 2.70, 2.21, 1.90, 1.57, 1.29, 1.07, 0.86, 0.80, 0.62, 0.46, 0.30, 0.22, 0.17, 0.12, 0.09, 0.09, 0.08, 0.07
    10,10/07/05 00:10:14,13,291.5, 80.3,1014.3,N, 3.93, 0.00,12.59,11.26,11.05,10.93,10.78,10.59,10.42,10.00, 9.75, 9.57, 9.20, 8.13, 7.55, 7.18, 7.23, 7.43, 7.84, 7.81, 7.54, 7.46, 6.88, 6.25, 5.73, 4.90, 4.18, 3.78, 3.32, 2.95, 2.74, 2.53, 2.08, 1.79, 1.48, 1.21, 1.02, 0.82, 0.76, 0.60, 0.44, 0.29, 0.21, 0.16, 0.12, 0.09, 0.09, 0.07, 0.06
    11,10/07/05 00:11:14,13,291.2, 78.7,1014.7,N, 3.96, 0.00,12.14,11.08,10.93,10.85,10.74,10.58,10.42,10.00, 9.77, 9.60, 9.20, 8.04, 7.51, 7.23, 7.45, 7.90, 8.60, 8.74, 8.45, 8.35, 7.55, 6.72, 6.02, 4.95, 4.10, 3.69, 3.21, 2.86, 2.66, 2.48, 2.02, 1.76, 1.46, 1.21, 1.01, 0.81, 0.77, 0.60, 0.46, 0.30, 0.21, 0.17, 0.12, 0.09, 0.09, 0.08, 0.07
    12,10/07/05 00:12:14,13,291.3, 79.4,1014.5,N, 4.00, 0.00,12.28,11.25,11.08,10.98,10.83,10.67,10.51,10.17, 9.97, 9.82, 9.51, 8.66, 8.25, 7.86, 7.38, 7.05, 6.86, 6.31, 5.97, 5.96, 5.50, 5.22, 4.82, 4.29, 3.77, 3.45, 3.04, 2.75, 2.47, 2.24, 1.90, 1.57, 1.34, 1.09, 0.92, 0.76, 0.69, 0.54, 0.43, 0.29, 0.21, 0.16, 0.13, 0.09, 0.09, 0.07, 0.07
    13,10/07/05 00:13:14,13,291.3, 80.1,1014.4,N, 3.88, 0.00,12.44,10.71,10.47,10.32,10.14, 9.93, 9.76, 9.36, 9.09, 8.91, 8.57, 7.67, 7.20, 6.89, 6.95, 7.34, 7.80, 7.83, 7.61, 7.62, 7.16, 6.55, 6.13, 5.30, 4.62, 4.18, 3.70, 3.30, 3.08, 2.85, 2.32, 2.00, 1.65, 1.34, 1.11, 0.89, 0.81, 0.63, 0.45, 0.30, 0.22, 0.16, 0.12, 0.09, 0.09, 0.07, 0.07
    14,10/07/05 00:14:14,13,291.2, 79.4,1014.5,N, 3.95, 0.00,12.27,11.46,11.30,11.22,11.11,10.97,10.81,10.38,10.18,10.02, 9.66, 8.45, 7.78, 7.29, 7.10, 7.01, 7.25, 7.04, 6.82, 6.85, 6.33, 5.85, 5.33, 4.57, 3.90, 3.56, 3.12, 2.80, 2.57, 2.37, 1.97, 1.68, 1.42, 1.16, 0.97, 0.79, 0.74, 0.58, 0.45, 0.29, 0.21, 0.17, 0.12, 0.09, 0.09, 0.08, 0.07
    15,10/07/05 00:15:14,13,291.3, 80.4,1014.5,N, 3.90, 0.00,12.49,11.17,10.96,10.83,10.67,10.49,10.31, 9.93, 9.69, 9.52, 9.17, 8.22, 7.70, 7.29, 7.10, 7.10, 7.24, 6.99, 6.72, 6.69, 6.20, 5.76, 5.32, 4.64, 4.03, 3.65, 3.22, 2.87, 2.63, 2.41, 2.01, 1.70, 1.42, 1.16, 0.98, 0.79, 0.72, 0.57, 0.43, 0.29, 0.21, 0.16, 0.12, 0.09, 0.09, 0.07, 0.06
    16,10/07/05 00:16:14,13,291.2, 80.0,1014.5,N, 3.87, 0.00,12.38,10.57,10.32,10.17, 9.99, 9.77, 9.60, 9.19, 8.92, 8.73, 8.40, 7.51, 7.07, 6.72, 6.78, 7.24, 7.73, 7.81, 7.62, 7.70, 7.29, 6.70, 6.32, 5.50, 4.86, 4.41, 3.92, 3.51, 3.28, 3.04, 2.48, 2.13, 1.74, 1.41, 1.16, 0.93, 0.84, 0.65, 0.46, 0.31, 0.22, 0.16, 0.12, 0.09, 0.09, 0.07, 0.07
    17,10/07/05 00:17:14,13,291.3, 79.9,1014.7,N, 3.89, 0.00,12.40,10.73,10.48,10.34,10.17, 9.96, 9.78, 9.37, 9.11, 8.95, 8.60, 7.66, 7.11, 6.77, 6.83, 7.18, 7.68, 7.73, 7.58, 7.64, 7.25, 6.65, 6.23, 5.41, 4.72, 4.28, 3.79, 3.39, 3.18, 2.96, 2.40, 2.07, 1.71, 1.39, 1.15, 0.92, 0.85, 0.66, 0.47, 0.31, 0.22, 0.16, 0.12, 0.09, 0.09, 0.07, 0.07
    18,10/07/05 00:18:14,13,291.4, 80.5,1014.5,N, 3.94, 0.00,12.53,10.99,10.77,10.64,10.48,10.28,10.12, 9.70, 9.44, 9.26, 8.90, 7.92, 7.43, 7.09, 7.18, 7.51, 7.98, 7.99, 7.71, 7.69, 7.15, 6.51, 6.03, 5.19, 4.49, 4.07, 3.59, 3.21, 2.99, 2.77, 2.26, 1.95, 1.60, 1.31, 1.09, 0.88, 0.80, 0.63, 0.46, 0.30, 0.22, 0.17, 0.12, 0.09, 0.09, 0.07, 0.07
    19,10/07/05 00:19:14,13,291.2, 80.7,1014.3,N, 3.99, 0.00,12.45,11.39,11.23,11.12,10.99,10.83,10.67,10.28,10.07, 9.90, 9.54, 8.50, 8.00, 7.65, 7.54, 7.50, 7.69, 7.41, 7.05, 6.96, 6.34, 5.81, 5.27, 4.50, 3.82, 3.46, 3.03, 2.70, 2.48, 2.28, 1.89, 1.61, 1.36, 1.11, 0.94, 0.77, 0.71, 0.56, 0.44, 0.29, 0.21, 0.16, 0.12, 0.09, 0.09, 0.07, 0.07
    20,10/07/05 00:20:14,13,291.4, 80.5,1013.9,N, 3.97, 0.00,12.54,11.70,11.54,11.44,11.31,11.16,11.00,10.60,10.41,10.22, 9.88, 8.82, 8.27, 7.73, 7.31, 6.95, 6.83, 6.38, 6.06, 6.01, 5.50, 5.18, 4.74, 4.18, 3.64, 3.33, 2.93, 2.63, 2.36, 2.14, 1.82, 1.52, 1.29, 1.05, 0.89, 0.73, 0.67, 0.53, 0.42, 0.28, 0.21, 0.16, 0.12, 0.09, 0.09, 0.07, 0.06
    21,10/07/05 00:21:14,13,291.4, 81.5,1014.6,N, 3.92, 0.00,12.71,11.20,10.97,10.81,10.62,10.42,10.25, 9.88, 9.63, 9.44, 9.11, 8.29, 7.88, 7.46, 7.17, 7.11, 7.09, 6.73, 6.40, 6.34, 5.88, 5.50, 5.14, 4.57, 4.04, 3.67, 3.26, 2.90, 2.63, 2.39, 2.01, 1.68, 1.40, 1.14, 0.96, 0.78, 0.70, 0.55, 0.42, 0.28, 0.21, 0.16, 0.12, 0.09, 0.09, 0.07, 0.06
    22,10/07/05 00:22:14,13,291.2, 79.9,1014.8,N, 3.89, 0.00,12.30,10.88,10.67,10.54,10.38,10.19,10.01, 9.64, 9.40, 9.23, 8.90, 8.00, 7.51, 7.15, 6.98, 7.10, 7.31, 7.11, 6.87, 6.89, 6.44, 5.98, 5.55, 4.82, 4.20, 3.80, 3.36, 3.01, 2.76, 2.54, 2.11, 1.79, 1.49, 1.22, 1.02, 0.83, 0.75, 0.59, 0.44, 0.29, 0.21, 0.16, 0.12, 0.09, 0.09, 0.07, 0.07
    23,10/07/05 00:23:14,13,291.3, 81.0,1015.0,N, 3.90, 0.00,12.59,10.90,10.66,10.51,10.32,10.11, 9.94, 9.55, 9.28, 9.09, 8.75, 7.88, 7.42, 7.04, 7.00, 7.24, 7.54, 7.43, 7.18, 7.18, 6.73, 6.21, 5.83, 5.11, 4.49, 4.07, 3.61, 3.22, 2.98, 2.74, 2.26, 1.93, 1.59, 1.29, 1.08, 0.87, 0.78, 0.61, 0.44, 0.30, 0.21, 0.16, 0.12, 0.09, 0.09, 0.07, 0.06
    24,10/07/05 00:24:14,13,291.4, 80.6,1014.5,N, 3.81, 0.00,12.62,10.26, 9.95, 9.74, 9.48, 9.22, 9.04, 8.69, 8.39, 8.22, 7.94, 7.39, 7.08, 6.73, 6.46, 6.70, 6.74, 6.51, 6.32, 6.44, 6.29, 6.01, 5.90, 5.46, 5.11, 4.66, 4.22, 3.79, 3.49, 3.17, 2.63, 2.20, 1.80, 1.43, 1.19, 0.96, 0.82, 0.63, 0.44, 0.30, 0.22, 0.16, 0.12, 0.09, 0.09, 0.07, 0.06
    25,10/07/05 00:25:14,13,291.2, 79.9,1014.8,N, 4.03, 0.00,12.31,11.92,11.84,11.80,11.75,11.64,11.50,11.08,10.90,10.71,10.29, 8.94, 8.32, 7.92, 7.93, 7.87, 8.21, 8.02, 7.61, 7.39, 6.48, 5.80, 5.04, 4.12, 3.32, 2.99, 2.57, 2.28, 2.07, 1.92, 1.60, 1.38, 1.17, 0.98, 0.83, 0.68, 0.65, 0.52, 0.42, 0.28, 0.21, 0.17, 0.12, 0.09, 0.09, 0.08, 0.06
    26,10/07/05 00:26:14,13,291.3, 79.8,1014.5,N, 3.82, 0.00,12.34,10.49,10.23,10.06, 9.84, 9.63, 9.45, 9.08, 8.82, 8.65, 8.36, 7.67, 7.29, 6.83, 6.42, 6.49, 6.46, 6.16, 5.99, 6.14, 5.93, 5.71, 5.54, 5.09, 4.72, 4.33, 3.90, 3.52, 3.21, 2.90, 2.44, 2.02, 1.68, 1.34, 1.11, 0.90, 0.78, 0.60, 0.44, 0.30, 0.22, 0.16, 0.12, 0.09, 0.09, 0.07, 0.07
    27,10/07/05 00:27:14,13,291.3, 80.1,1014.6,N, 3.93, 0.00,12.40,11.12,10.93,10.80,10.64,10.46,10.30, 9.94, 9.71, 9.53, 9.20, 8.32, 7.91, 7.53, 7.26, 7.21, 7.23, 6.88, 6.55, 6.50, 5.97, 5.57, 5.13, 4.49, 3.90, 3.54, 3.12, 2.79, 2.52, 2.30, 1.93, 1.62, 1.36, 1.11, 0.94, 0.77, 0.69, 0.55, 0.42, 0.28, 0.21, 0.16, 0.12, 0.09, 0.09, 0.07, 0.06
    28,10/07/05 00:28:14,13,291.4, 80.4,1014.4,N, 3.97, 0.00,12.53,11.86,11.70,11.62,11.51,11.36,11.20,10.81,10.63,10.48,10.12, 8.96, 8.25, 7.77, 7.44, 7.03, 7.03, 6.59, 6.30, 6.20, 5.65, 5.25, 4.72, 4.07, 3.42, 3.10, 2.71, 2.41, 2.19, 2.00, 1.68, 1.43, 1.22, 1.01, 0.86, 0.71, 0.66, 0.53, 0.42, 0.28, 0.20, 0.16, 0.12, 0.09, 0.09, 0.07, 0.06
    29,10/07/05 00:29:14,13,291.3, 80.5,1014.6,N, 3.91, 0.05,12.45,11.30,11.08,10.94,10.76,10.59,10.40,10.03, 9.82, 9.65, 9.39, 8.54, 8.06, 7.42, 6.68, 6.23, 5.90, 5.34, 5.12, 5.23, 4.98, 4.89, 4.68, 4.37, 4.06, 3.77, 3.39, 3.08, 2.74, 2.44, 2.11, 1.71, 1.45, 1.16, 0.97, 0.80, 0.70, 0.54, 0.42, 0.29, 0.21, 0.16, 0.12, 0.09, 0.09, 0.07, 0.06
    30,10/07/05 00:30:14,13,291.3, 81.0,1015.0,N, 3.96, 0.00,12.59,11.27,11.07,10.95,10.81,10.62,10.46,10.05, 9.80, 9.62, 9.24, 8.21, 7.67, 7.34, 7.45, 7.67, 8.12, 8.07, 7.75, 7.63, 6.97, 6.29, 5.73, 4.85, 4.09, 3.69, 3.23, 2.87, 2.66, 2.46, 2.02, 1.74, 1.44, 1.19, 1.00, 0.81, 0.75, 0.59, 0.44, 0.29, 0.21, 0.16, 0.12, 0.09, 0.09, 0.07, 0.06
    31,10/07/05 00:31:14,13,291.3, 81.2,1014.4,N, 3.91, 0.00,12.57,10.88,10.65,10.50,10.32,10.12, 9.95, 9.52, 9.24, 9.04, 8.68, 7.71, 7.25, 6.90, 7.05, 7.53, 8.08, 8.21, 7.96, 7.94, 7.39, 6.71, 6.25, 5.36, 4.66, 4.22, 3.74, 3.33, 3.11, 2.88, 2.34, 2.03, 1.65, 1.35, 1.12, 0.90, 0.81, 0.63, 0.46, 0.30, 0.22, 0.16, 0.12, 0.09, 0.09, 0.07, 0.06
    32,10/07/05 00:32:14,13,291.4, 81.9,1015.1,N, 4.01, 0.00,12.80,11.75,11.56,11.46,11.32,11.14,10.99,10.60,10.37,10.20, 9.81, 8.73, 8.13, 7.79, 7.80, 7.72, 7.98, 7.73, 7.34, 7.12, 6.41, 5.78, 5.18, 4.37, 3.62, 3.26, 2.84, 2.51, 2.30, 2.13, 1.75, 1.51, 1.27, 1.05, 0.90, 0.73, 0.69, 0.55, 0.42, 0.28, 0.21, 0.16, 0.12, 0.09, 0.09, 0.07, 0.06
    33,10/07/05 00:33:14,13,291.2, 82.1,1014.7,N, 3.95, 0.00,12.69,11.28,11.05,10.91,10.73,10.53,10.36, 9.99, 9.75, 9.58, 9.23, 8.34, 7.84, 7.50, 7.39, 7.37, 7.53, 7.24, 6.91, 6.81, 6.29, 5.79, 5.33, 4.62, 3.96, 3.58, 3.16, 2.81, 2.58, 2.37, 1.96, 1.67, 1.40, 1.14, 0.97, 0.79, 0.72, 0.57, 0.43, 0.29, 0.21, 0.16, 0.12, 0.09, 0.09, 0.07, 0.06
    34,10/07/05 00:34:14,13,291.2, 81.3,1014.9,N, 4.02, 0.00,12.55,11.74,11.58,11.48,11.36,11.21,11.06,10.68,10.48,10.32, 9.98, 8.91, 8.33, 7.88, 7.55, 7.19, 7.16, 6.69, 6.34, 6.27, 5.71, 5.32, 4.83, 4.19, 3.58, 3.26, 2.85, 2.56, 2.31, 2.11, 1.78, 1.50, 1.28, 1.05, 0.89, 0.73, 0.68, 0.54, 0.43, 0.28, 0.21, 0.16, 0.12, 0.09, 0.09, 0.07, 0.06
    35,10/07/05 00:35:14,13,291.2, 81.7,1014.8,N, 3.96, 0.00,12.63,11.27,11.07,10.93,10.75,10.57,10.41,10.05, 9.81, 9.62, 9.28, 8.44, 8.06, 7.67, 7.40, 7.30, 7.27, 6.86, 6.49, 6.41, 5.88, 5.47, 5.06, 4.44, 3.87, 3.51, 3.11, 2.77, 2.50, 2.27, 1.91, 1.61, 1.35, 1.10, 0.93, 0.76, 0.68, 0.54, 0.42, 0.28, 0.21, 0.16, 0.12, 0.09, 0.09, 0.07, 0.06
    36,10/07/05 00:36:14,13,291.3, 81.4,1014.6,N, 3.99, 0.14,12.63,11.70,11.53,11.40,11.23,11.08,10.90,10.57,10.35,10.16, 9.86, 9.02, 8.66, 8.11, 7.44, 6.92, 6.50, 5.84, 5.47, 5.39, 4.90, 4.69, 4.33, 3.92, 3.49, 3.20, 2.84, 2.55, 2.24, 1.99, 1.72, 1.40, 1.19, 0.97, 0.83, 0.69, 0.61, 0.48, 0.39, 0.27, 0.21, 0.16, 0.12, 0.09, 0.09, 0.07, 0.06
    37,10/07/05 00:37:14,13,291.2, 80.6,1015.1,N, 4.00, 0.03,12.40,12.04,11.90,11.82,11.71,11.59,11.43,11.05,10.89,10.74,10.45, 9.33, 8.67, 7.94, 7.11, 6.32, 5.93, 5.27, 5.00, 5.06, 4.69, 4.57, 4.22, 3.84, 3.43, 3.18, 2.82, 2.57, 2.26, 2.02, 1.76, 1.43, 1.24, 1.01, 0.85, 0.71, 0.64, 0.50, 0.42, 0.28, 0.21, 0.16, 0.12, 0.09, 0.09, 0.07, 0.06
    38,10/07/05 00:38:14,13,291.4, 81.8,1015.1,N, 4.02, 0.07,12.72,12.08,11.92,11.82,11.67,11.53,11.36,11.00,10.81,10.64,10.34, 9.34, 8.80, 8.14, 7.38, 6.63, 6.21, 5.52, 5.19, 5.15, 4.73, 4.56, 4.21, 3.84, 3.42, 3.16, 2.80, 2.53, 2.23, 1.99, 1.72, 1.40, 1.20, 0.97, 0.84, 0.70, 0.62, 0.49, 0.40, 0.27, 0.21, 0.16, 0.12, 0.09, 0.09, 0.07, 0.06
    39,10/07/05 00:39:13,13,291.5, 83.2,1015.1,N, 4.03, 0.18,13.04,12.03,11.82,11.67,11.46,11.28,11.10,10.76,10.52,10.34,10.06, 9.26, 8.84, 8.23, 7.49, 6.79, 6.29, 5.58, 5.21, 5.12, 4.70, 4.53, 4.24, 3.93, 3.57, 3.30, 2.95, 2.66, 2.33, 2.06, 1.77, 1.43, 1.22, 0.98, 0.85, 0.71, 0.61, 0.49, 0.39, 0.27, 0.21, 0.16, 0.12, 0.09, 0.09, 0.07, 0.06
    40,10/07/05 00:40:14,13,291.3, 82.7,1015.1,N, 4.01, 0.05,12.78,12.01,11.83,11.71,11.55,11.40,11.23,10.87,10.67,10.50,10.20, 9.23, 8.70, 8.08, 7.39, 6.71, 6.33, 5.67, 5.32, 5.28, 4.85, 4.66, 4.30, 3.91, 3.46, 3.19, 2.83, 2.55, 2.25, 2.01, 1.73, 1.42, 1.21, 0.99, 0.85, 0.70, 0.63, 0.50, 0.40, 0.27, 0.21, 0.16, 0.12, 0.09, 0.09, 0.07, 0.06
    41,10/07/05 00:41:14,13,291.4, 81.9,1015.1,N, 4.04, 0.04,12.79,12.09,11.92,11.82,11.67,11.53,11.37,11.01,10.82,10.65,10.34, 9.35, 8.80, 8.21, 7.55, 6.83, 6.45, 5.78, 5.41, 5.34, 4.87, 4.66, 4.27, 3.86, 3.40, 3.12, 2.76, 2.48, 2.19, 1.97, 1.69, 1.39, 1.19, 0.97, 0.83, 0.69, 0.63, 0.50, 0.40, 0.27, 0.21, 0.16, 0.12, 0.09, 0.09, 0.07, 0.06
    42,10/07/05 00:42:14,13,291.2, 81.4,1014.8,N, 3.98, 0.20,12.57,11.65,11.47,11.32,11.14,10.98,10.79,10.45,10.22,10.05, 9.79, 8.98, 8.59, 7.98, 7.19, 6.59, 6.13, 5.45, 5.15, 5.14, 4.75, 4.63, 4.34, 4.01, 3.67, 3.39, 3.04, 2.76, 2.42, 2.13, 1.84, 1.48, 1.26, 1.03, 0.88, 0.73, 0.63, 0.49, 0.40, 0.28, 0.21, 0.16, 0.13, 0.09, 0.09, 0.07, 0.06
    43,10/07/05 00:43:14,13,291.3, 82.3,1015.2,N, 4.03, 0.32,12.74,12.00,11.81,11.66,11.47,11.31,11.11,10.78,10.53,10.36,10.11, 9.27, 8.86, 8.21, 7.38, 6.66, 6.15, 5.42, 5.10, 5.05, 4.63, 4.50, 4.20, 3.90, 3.57, 3.31, 2.98, 2.72, 2.36, 2.06, 1.77, 1.42, 1.21, 0.99, 0.85, 0.71, 0.61, 0.48, 0.40, 0.27, 0.21, 0.16, 0.13, 0.09, 0.09, 0.07, 0.06
    44,10/07/05 00:44:14,13,291.4, 83.1,1015.0,N, 4.02, 0.07,13.00,11.99,11.78,11.64,11.45,11.27,11.10,10.74,10.52,10.34,10.04, 9.16, 8.69, 8.09, 7.43, 6.79, 6.39, 5.73, 5.36, 5.29, 4.87, 4.68, 4.36, 4.00, 3.59, 3.30, 2.94, 2.64, 2.34, 2.08, 1.79, 1.46, 1.24, 1.00, 0.86, 0.72, 0.63, 0.50, 0.40, 0.28, 0.21, 0.16, 0.12, 0.09, 0.09, 0.07, 0.06
    45,10/07/05 00:45:14,13,291.2, 83.6,1015.0,N, 4.02, 0.15,12.92,11.84,11.64,11.48,11.27,11.09,10.92,10.60,10.37,10.18, 9.89, 9.14, 8.79, 8.30, 7.66, 7.07, 6.62, 5.91, 5.50, 5.37, 4.88, 4.65, 4.30, 3.89, 3.45, 3.15, 2.81, 2.51, 2.21, 1.96, 1.68, 1.38, 1.17, 0.96, 0.83, 0.69, 0.60, 0.48, 0.39, 0.27, 0.20, 0.16, 0.12, 0.09, 0.09, 0.07, 0.06
    46,10/07/05 00:46:13,13,291.3, 82.6,1015.1,N, 3.88, 0.24,12.77,10.78,10.46,10.23, 9.93, 9.68, 9.47, 9.16, 8.85, 8.70, 8.48, 8.04, 7.80, 7.31, 6.60, 6.33, 5.93, 5.34, 5.13, 5.21, 5.07, 5.02, 5.00, 4.85, 4.73, 4.38, 4.04, 3.69, 3.27, 2.87, 2.43, 1.95, 1.63, 1.29, 1.09, 0.89, 0.73, 0.56, 0.42, 0.29, 0.22, 0.16, 0.12, 0.09, 0.09, 0.07, 0.06
    47,10/07/05 00:47:14,13,291.3, 81.4,1015.5,N, 3.98, 0.20,12.63,11.55,11.34,11.19,10.98,10.81,10.62,10.26,10.02, 9.86, 9.61, 8.83, 8.42, 7.75, 6.94, 6.36, 5.92, 5.26, 5.00, 5.06, 4.77, 4.69, 4.49, 4.26, 4.01, 3.73, 3.37, 3.09, 2.71, 2.38, 2.06, 1.65, 1.39, 1.12, 0.95, 0.78, 0.67, 0.52, 0.42, 0.28, 0.21, 0.16, 0.13, 0.09, 0.09, 0.07, 0.06
    48,10/07/05 00:48:14,13,291.3, 81.3,1015.2,N, 3.91, 0.18,12.60,11.38,11.13,10.95,10.72,10.52,10.31, 9.96, 9.72, 9.59, 9.38, 8.66, 8.14, 7.44, 6.50, 5.85, 5.37, 4.73, 4.55, 4.67, 4.54, 4.57, 4.48, 4.36, 4.23, 3.95, 3.61, 3.33, 2.92, 2.56, 2.21, 1.76, 1.49, 1.19, 1.00, 0.83, 0.69, 0.54, 0.42, 0.29, 0.21, 0.16, 0.12, 0.09, 0.09, 0.07, 0.06
    49,10/07/05 00:49:14,13,291.3, 81.2,1014.9,N, 3.99, 0.21,12.59,11.89,11.71,11.58,11.40,11.25,11.06,10.71,10.50,10.34,10.09, 9.21, 8.71, 8.03, 7.14, 6.38, 5.88, 5.17, 4.89, 4.90, 4.54, 4.45, 4.18, 3.90, 3.59, 3.33, 2.99, 2.73, 2.38, 2.09, 1.81, 1.45, 1.24, 1.01, 0.86, 0.72, 0.62, 0.49, 0.40, 0.27, 0.21, 0.16, 0.13, 0.09, 0.09, 0.07, 0.06
    50,10/07/05 00:50:14,13,291.2, 81.1,1015.0,N, 3.95, 0.02,12.54,11.26,11.04,10.90,10.71,10.53,10.36,10.00, 9.78, 9.62, 9.33, 8.52, 8.09, 7.60, 7.05, 6.70, 6.47, 5.94, 5.65, 5.68, 5.34, 5.13, 4.84, 4.41, 3.98, 3.66, 3.26, 2.95, 2.64, 2.38, 2.03, 1.67, 1.41, 1.14, 0.96, 0.79, 0.70, 0.55, 0.42, 0.29, 0.21, 0.16, 0.12, 0.09, 0.09, 0.07, 0.06
    51,10/07/05 00:51:14,13,291.3, 81.1,1015.2,N, 4.11, 0.16,12.59,12.26,12.15,12.07,11.95,11.83,11.68,11.34,11.16,11.01,10.72, 9.70, 9.21, 8.60, 7.81, 6.93, 6.43, 5.64, 5.25, 5.18, 4.66, 4.47, 4.06, 3.67, 3.23, 2.98, 2.62, 2.39, 2.08, 1.85, 1.60, 1.30, 1.12, 0.92, 0.80, 0.67, 0.60, 0.48, 0.41, 0.27, 0.21, 0.17, 0.13, 0.09, 0.09, 0.07, 0.06
    52,10/07/05 00:52:14,13,291.5, 82.1,1015.0,N, 3.97, 0.17,12.88,11.75,11.53,11.37,11.15,10.97,10.78,10.42,10.18,10.00, 9.74, 8.93, 8.50, 7.82, 7.02, 6.41, 5.94, 5.29, 5.00, 5.01, 4.69, 4.60, 4.39, 4.15, 3.88, 3.61, 3.25, 2.95, 2.59, 2.28, 1.97, 1.58, 1.34, 1.07, 0.91, 0.75, 0.65, 0.51, 0.40, 0.28, 0.21, 0.16, 0.12, 0.09, 0.09, 0.07, 0.06
    53,10/07/05 00:53:14,13,291.4, 81.4,1015.2,N, 3.96, 0.13,12.65,11.53,11.32,11.16,10.96,10.78,10.59,10.28,10.05, 9.90, 9.63, 8.91, 8.50, 7.98, 7.23, 6.63, 6.18, 5.49, 5.18, 5.14, 4.78, 4.64, 4.36, 4.04, 3.66, 3.37, 3.01, 2.72, 2.39, 2.12, 1.82, 1.48, 1.26, 1.02, 0.88, 0.73, 0.63, 0.50, 0.40, 0.27, 0.21, 0.16, 0.12, 0.09, 0.09, 0.07, 0.06
    54,10/07/05 00:54:14,13,291.3, 80.6,1015.3,N, 4.05, 0.14,12.52,11.84,11.68,11.58,11.43,11.29,11.13,10.78,10.59,10.43,10.15, 9.23, 8.78, 8.18, 7.41, 6.72, 6.29, 5.58, 5.24, 5.23, 4.80, 4.65, 4.31, 3.95, 3.55, 3.28, 2.92, 2.66, 2.33, 2.08, 1.80, 1.45, 1.24, 1.01, 0.86, 0.72, 0.64, 0.50, 0.42, 0.28, 0.21, 0.16, 0.13, 0.09, 0.09, 0.07, 0.06
    55,10/07/05 00:55:14,13,291.4, 80.7,1015.1,N, 3.90, 0.06,12.59,10.92,10.68,10.52,10.30,10.10, 9.93, 9.57, 9.31, 9.11, 8.83, 8.13, 7.83, 7.33, 6.84, 6.73, 6.53, 6.08, 5.80, 5.86, 5.53, 5.32, 5.11, 4.72, 4.37, 4.02, 3.61, 3.26, 2.91, 2.61, 2.23, 1.82, 1.52, 1.21, 1.02, 0.83, 0.71, 0.55, 0.42, 0.29, 0.21, 0.16, 0.12, 0.09, 0.09, 0.07, 0.06
    56,10/07/05 00:56:14,13,291.4, 80.7,1015.2,N, 4.01, 0.17,12.59,11.78,11.61,11.48,11.32,11.17,10.99,10.65,10.43,10.26, 9.99, 9.12, 8.69, 8.06, 7.27, 6.62, 6.17, 5.48, 5.16, 5.15, 4.75, 4.61, 4.31, 3.99, 3.63, 3.36, 3.00, 2.73, 2.39, 2.12, 1.83, 1.48, 1.26, 1.02, 0.87, 0.72, 0.63, 0.50, 0.41, 0.28, 0.21, 0.16, 0.13, 0.09, 0.09, 0.07, 0.06
    57,10/07/05 00:57:14,13,291.4, 80.8,1015.3,N, 4.03, 0.12,12.59,11.88,11.72,11.61,11.46,11.32,11.15,10.82,10.62,10.46,10.17, 9.28, 8.82, 8.26, 7.51, 6.82, 6.37, 5.66, 5.30, 5.24, 4.77, 4.58, 4.22, 3.83, 3.40, 3.12, 2.77, 2.50, 2.19, 1.95, 1.69, 1.37, 1.18, 0.96, 0.82, 0.69, 0.61, 0.49, 0.40, 0.27, 0.21, 0.16, 0.12, 0.09, 0.09, 0.07, 0.06
    58,10/07/05 00:58:14,13,291.3, 80.8,1015.5,N, 4.09, 0.11,12.54,12.37,12.26,12.19,12.08,11.98,11.81,11.48,11.32,11.19,10.90, 9.82, 9.22, 8.58, 7.70, 6.71, 6.20, 5.40, 5.04, 4.98, 4.49, 4.34, 3.92, 3.55, 3.10, 2.86, 2.52, 2.29, 1.99, 1.77, 1.54, 1.25, 1.09, 0.89, 0.78, 0.65, 0.59, 0.47, 0.40, 0.27, 0.21, 0.16, 0.13, 0.09, 0.09, 0.07, 0.06
    59,10/07/05 00:59:14,13,291.4, 81.2,1015.1,N, 3.94, 0.15,12.64,11.66,11.45,11.31,11.12,10.95,10.76,10.40,10.18,10.00, 9.74, 8.89, 8.43, 7.74, 6.91, 6.31, 5.86, 5.22, 4.96, 4.99, 4.67, 4.58, 4.35, 4.07, 3.78, 3.51, 3.15, 2.86, 2.50, 2.21, 1.92, 1.54, 1.31, 1.05, 0.89, 0.74, 0.64, 0.50, 0.40, 0.27, 0.21, 0.16, 0.12, 0.09, 0.09, 0.07, 0.06
    60,10/07/05 01:00:14,13,291.5, 80.6,1015.0,N, 4.04, 0.00,12.63,11.75,11.61,11.52,11.39,11.25,11.11,10.74,10.54,10.34, 9.98, 8.98, 8.56, 8.15, 7.86, 7.59, 7.50, 7.02, 6.55, 6.39, 5.70, 5.25, 4.73, 4.09, 3.47, 3.15, 2.75, 2.45, 2.20, 2.00, 1.70, 1.42, 1.20, 0.98, 0.84, 0.69, 0.64, 0.51, 0.41, 0.28, 0.21, 0.16, 0.12, 0.09, 0.09, 0.07, 0.06
    61,10/07/05 01:01:14,13,291.4, 81.1,1015.0,N, 3.84, 0.12,12.61,10.61,10.29,10.08, 9.80, 9.56, 9.35, 9.04, 8.76, 8.61, 8.39, 7.92, 7.61, 7.12, 6.40, 6.13, 5.76, 5.21, 5.03, 5.15, 5.06, 5.03, 5.01, 4.85, 4.71, 4.35, 3.99, 3.63, 3.24, 2.87, 2.44, 1.97, 1.65, 1.30, 1.09, 0.89, 0.74, 0.57, 0.42, 0.29, 0.21, 0.16, 0.12, 0.09, 0.09, 0.07, 0.06
    62,10/07/05 01:02:14,13,291.3, 81.9,1015.1,N, 4.01, 0.05,12.70,12.13,11.99,11.89,11.76,11.64,11.48,11.10,10.92,10.72,10.39, 9.32, 8.79, 8.13, 7.49, 6.85, 6.50, 5.88, 5.51, 5.44, 4.91, 4.67, 4.26, 3.80, 3.32, 3.05, 2.69, 2.41, 2.13, 1.90, 1.65, 1.35, 1.15, 0.94, 0.81, 0.67, 0.61, 0.48, 0.40, 0.27, 0.20, 0.16, 0.12, 0.09, 0.09, 0.07, 0.06
    63,10/07/05 01:03:14,13,291.4, 81.9,1015.2,N, 3.87, 0.05,12.75,10.99,10.71,10.52,10.28,10.06, 9.87, 9.52, 9.25, 9.07, 8.80, 8.14, 7.77, 7.22, 6.64, 6.40, 6.12, 5.64, 5.40, 5.48, 5.27, 5.14, 5.00, 4.71, 4.42, 4.08, 3.69, 3.33, 2.98, 2.67, 2.27, 1.85, 1.55, 1.23, 1.04, 0.85, 0.72, 0.56, 0.42, 0.29, 0.21, 0.15, 0.12, 0.09, 0.09, 0.07, 0.06
    64,10/07/05 01:04:14,13,291.4, 82.3,1015.3,N, 3.94, 0.00,12.84,11.38,11.13,10.98,10.78,10.57,10.40,10.03, 9.78, 9.60, 9.29, 8.45, 7.97, 7.48, 7.09, 6.84, 6.73, 6.29, 5.99, 5.98, 5.62, 5.33, 5.03, 4.56, 4.08, 3.74, 3.33, 2.98, 2.70, 2.45, 2.06, 1.72, 1.44, 1.16, 0.98, 0.80, 0.71, 0.56, 0.42, 0.29, 0.21, 0.16, 0.12, 0.09, 0.09, 0.07, 0.06
    65,10/07/05 01:05:14,13,291.3, 82.1,1015.4,N, 3.84, 0.00,12.76,10.53,10.25,10.05, 9.81, 9.57, 9.38, 9.02, 8.71, 8.51, 8.17, 7.49, 7.19, 6.97, 7.13, 7.73, 8.18, 8.23, 7.91, 7.77, 7.22, 6.53, 6.13, 5.29, 4.59, 4.11, 3.65, 3.21, 2.98, 2.75, 2.23, 1.93, 1.57, 1.27, 1.07, 0.86, 0.76, 0.60, 0.42, 0.29, 0.21, 0.16, 0.12, 0.09, 0.09, 0.07, 0.06
    66,10/07/05 01:06:14,13,291.4, 81.8,1015.3,N, 3.93, 0.00,12.77,11.74,11.52,11.40,11.24,11.07,10.90,10.50,10.29,10.11, 9.78, 8.76, 8.15, 7.58, 7.12, 6.73, 6.59, 6.13, 5.85, 5.81, 5.39, 5.10, 4.72, 4.22, 3.70, 3.38, 2.99, 2.67, 2.40, 2.18, 1.85, 1.54, 1.30, 1.06, 0.90, 0.74, 0.67, 0.53, 0.41, 0.28, 0.21, 0.16, 0.12, 0.09, 0.08, 0.07, 0.06
    67,10/07/05 01:07:14,13,291.4, 81.5,1015.2,N, 3.85, 0.00,12.69,10.62,10.34,10.16, 9.94, 9.70, 9.52, 9.13, 8.83, 8.63, 8.29, 7.51, 7.10, 6.77, 6.83, 7.30, 7.73, 7.77, 7.55, 7.55, 7.13, 6.55, 6.21, 5.45, 4.83, 4.37, 3.90, 3.46, 3.22, 2.97, 2.42, 2.08, 1.69, 1.37, 1.14, 0.91, 0.81, 0.63, 0.44, 0.30, 0.21, 0.16, 0.12, 0.09, 0.09, 0.07, 0.06
    68,10/07/05 01:08:14,13,291.4, 81.9,1015.3,N, 3.89, 0.00,12.80,11.19,10.93,10.78,10.59,10.39,10.21, 9.78, 9.50, 9.29, 8.95, 7.95, 7.41, 6.90, 6.83, 7.00, 7.29, 7.21, 7.01, 7.04, 6.64, 6.15, 5.80, 5.13, 4.56, 4.16, 3.70, 3.30, 3.05, 2.80, 2.31, 1.97, 1.62, 1.31, 1.09, 0.88, 0.79, 0.61, 0.44, 0.30, 0.21, 0.16, 0.12, 0.09, 0.09, 0.07, 0.06